Location: Aciura
(46.3333°N, 22.4833°E)
Time: 23:16:50
(UTC+00:00)

Daily predictions for brighter satellites

Satellite Brightness Start Highest point End
(mag) Time Altitude Azimuth Time Altitude Azimuth Time Altitude Azimuth
BREEZE-M DEB (TANK) 3.7 16:32:14 10° WNW 16:35:58 83° NNE 16:50:19 10° ESE
SKYMED 2 3.6 16:39:12 10° NNE 16:43:34 80° ESE 16:47:54 10° S
USA 215 3.8 16:38:17 10° E 16:44:28 46° NNE 16:50:41 10° NW
Landsat 5 3.4 16:41:27 10° NNE 16:45:25 86° ESE 16:49:28 10° SSW
Cosmos 2074 Rocket 4.1 16:41:51 10° SSE 16:47:56 57° E 16:54:05 10° NNE
Okean-O 3.5 16:46:37 10° SE 16:50:27 30° ENE 16:54:19 10° N
Spot 2 3.9 16:52:32 10° SSE 16:56:45 86° ENE 17:00:50 10° NNW
Atlas Centaur 2 4.4 16:51:36 10° SW 16:57:54 25° S 17:04:25 10° ESE
Cosmos 1378 Rocket 3.6 16:54:26 10° N 16:58:53 90° ESE 17:03:19 10° S
Meteor 2-12 Rocket 4.4 16:54:54 10° S 17:01:00 82° E 17:07:06 10° N
IRAS Rocket 4.2 16:56:04 10° NNE 17:01:45 78° ESE 17:07:21 10° SSW
Cosmos 1908 Rocket 3.6 16:58:08 10° S 17:02:31 58° E 17:06:55 10° NNE
Lacrosse 4 Rocket 4.2 17:01:57 10° WNW 17:03:41 12° NW 17:05:27 10° NNW
ARGOS 3.3 17:01:52 10° SSE 17:07:14 81° WSW 17:12:39 10° NNW
HJ-1C 3.4 17:05:26 10° SSE 17:08:38 54° ENE 17:11:50 10° N
OBJECT-B 2.4 17:10:25 14° E 17:11:39 17° ENE 17:13:49 10° NNE
CZ-4C R/B 4.1 17:09:20 10° N 17:12:50 49° WNW 17:16:18 10° SSW
NOSS 3-2 (A) 4.3 17:09:05 10° SSE 17:13:13 22° ESE 17:17:44 10° ENE
Cosmos 1184 Rocket 3.7 17:10:29 10° N 17:13:18 28° ENE 17:15:43 12° SE
Cosmos 1346 Rocket 3.2 17:09:47 10° N 17:13:39 43° ENE 17:17:29 10° SSE
H-2A R/B 3.4 17:09:57 10° S 17:14:44 43° W 17:19:42 10° NNW
DMSP B5D2-2 4.2 17:10:42 10° NNE 17:15:53 51° E 17:21:00 10° S
YAOGAN 1 2.5 17:11:58 10° SSE 17:16:17 87° ENE 17:20:38 10° NNW
Cosmos 1943 Rocket 2.4 17:11:18 10° SSW 17:16:52 74° WNW 17:22:32 10° NNE
USA 305 4.1 17:13:47 10° NW 17:17:37 32° NNE 17:20:51 13° ENE
Cosmos 1538 Rocket 4.5 17:12:45 10° N 17:17:54 44° ENE 17:22:59 10° SE
SJ 16-02 1.8 17:14:18 10° S 17:18:24 38° ESE 17:22:31 10° NE
Okean O Rocket 3.3 17:14:28 10° SSW 17:18:31 37° W 17:22:35 10° NNW
Cosmos 1238 Rocket 3.8 17:18:03 10° S 17:24:18 87° E 17:29:42 10° N
USA 186 2.9 17:23:51 21° E 17:24:38 23° ENE 17:27:12 10° NNE
CZ-2C R/B 3.3 17:20:35 10° N 17:26:05 65° WNW 17:31:37 10° SSW
COSMOS 2455 3.9 17:22:31 10° NW 17:28:16 47° WSW 17:34:00 10° S
COSMO-SKYMED 1 4.5 17:27:34 10° N 17:31:29 34° WNW 17:35:24 10° SW
IRS-1C Rocket 4.1 17:26:24 10° SSE 17:31:40 89° ENE 17:36:58 10° NNW
ISS -2.4 17:29:12 10° WNW 17:32:16 31° N 17:34:21 17° NE
Cosmos 1295 Rocket 4.4 17:26:12 10° S 17:32:25 73° E 17:38:44 10° NNE
USA 307 4.0 17:29:29 10° NW 17:33:23 34° NNE 17:35:58 18° ENE
Cosmos 1441 Rocket 4.3 17:30:34 10° NNE 17:33:36 23° ENE 17:34:08 22° E
Geosat 4.0 17:28:41 10° NE 17:33:41 63° ESE 17:38:39 10° SSW
Cosmos 2369 Rocket 2.1 17:30:55 10° SSW 17:36:35 79° ESE 17:42:14 10° NNE
PSLV R/B 4.3 17:33:24 10° NNE 17:37:20 40° E 17:41:12 10° S
Cosmos 2184 Rocket 4.4 17:31:09 10° SSW 17:37:26 67° W 17:43:42 10° N
Cosmos 1833 4.3 17:32:20 10° NNW 17:37:53 56° ENE 17:42:01 18° SE
Cosmos 2327 Rocket 4.5 17:33:33 10° S 17:39:48 85° E 17:46:12 10° N
Okean 2 Rocket 3.9 17:42:36 26° ESE 17:43:20 27° E 17:47:03 10° NNE
CSL-04 Debris 4.1 17:39:34 10° SSE 17:44:58 82° ENE 17:50:23 10° NNW
Cosmos 1777 Rocket 4.0 17:40:25 10° SSW 17:45:40 89° WNW 17:50:57 10° NNE
USA 306 3.8 17:41:55 10° NW 17:45:54 37° NNE 17:47:51 24° ENE
Cosmos 1674 3.3 17:43:32 10° NNW 17:47:11 57° W 17:50:50 10° S
USA 276 2.9 17:44:35 10° WNW 17:47:35 41° N 17:48:35 30° NE
H-2A R/B 2.5 17:44:07 10° N 17:48:16 60° WNW 17:52:18 10° SSW
Lacrosse 5 rocket 3.0 17:45:18 10° WNW 17:49:23 33° SW 17:53:15 10° SSE
USA 308 3.8 17:48:58 10° NW 17:52:57 38° NNE 17:54:40 26° ENE
Cosmos 1656 Rocket 3.5 17:47:28 10° SSW 17:53:01 75° ESE 17:58:31 10° NNE
Cosmos 1782 Rocket 3.7 17:49:50 10° SSW 17:54:16 75° W 17:58:42 10° N
Cosmos 1626 2.2 17:51:41 10° NNW 17:55:24 74° W 17:59:03 10° S
APEX 3.4 17:51:03 10° NNW 17:55:49 62° ENE 17:57:09 38° ESE
Sich 1 Rocket 3.7 17:52:37 10° S 17:57:01 52° E 18:01:25 10° NNE
Cosmos 2154 Rocket 4.4 17:50:48 10° SSW 17:57:07 68° W 18:03:28 10° N
ATLAS CENTAUR R/B 3.9 17:54:07 10° WNW 17:57:52 23° WSW 18:01:41 10° SSW
SeaSat 1 2.7 17:56:27 30° ESE 17:58:35 52° NE 18:03:23 10° NNW
Cosmos 923 Rocket 4.4 17:54:24 10° N 17:59:23 43° ENE 18:01:01 33° ESE
SL-8 Rocket 4.1 17:54:50 10° SSE 18:00:56 56° E 18:07:06 10° NNE
Cosmos 1805 3.4 17:57:19 10° SSW 18:01:11 75° W 18:05:05 10° N
Cosmos 1025 Rocket 2.9 17:57:32 10° N 18:01:53 71° E 18:04:07 27° SSE
Cosmos 1536 Rocket 4.2 17:58:45 10° N 18:02:49 35° ENE 18:02:53 35° ENE
Cosmos 1315 Rocket 2.7 17:59:41 10° S 18:03:40 90° E 18:07:45 10° N
SL-14 R/B 3.1 17:59:41 10° N 18:03:40 77° E 18:05:20 33° SSE
EO 1 Delta rocket 4.3 18:03:45 33° SE 18:05:35 49° ENE 18:11:06 10° N
CZ-4B R/B 1.9 18:02:54 10° N 18:05:55 53° WNW 18:08:59 10° SSW
SJ-6B 2.8 18:06:15 38° SSE 18:07:44 71° ENE 18:11:49 10° N
MetOp-A 4.5 18:02:28 10° S 18:07:46 66° WSW 18:13:08 10° NNW
Cosmos 1339 Rocket 4.3 18:02:37 10° N 18:08:50 74° E 18:13:44 16° SSE
Meteor 2-10 4.2 18:05:59 10° S 18:11:27 53° E 18:16:46 10° NNE
Cosmos 1680 Rocket 3.9 18:07:01 10° N 18:12:03 43° ENE 18:13:00 39° E
CZ-4 R/B 3.9 18:09:10 10° SW 18:12:07 21° W 18:15:06 10° NW
Cosmos 2263 4.3 18:07:06 10° SSW 18:12:42 77° WNW 18:18:21 10° NNE
Cosmos 2151 Rocket 3.9 18:18:12 47° ENE 18:18:12 47° ENE 18:22:04 10° NNE
IRS-1A Rocket 4.5 18:16:43 38° SE 18:18:44 56° ENE 18:24:30 10° N
Cosmos 1727 Rocket 4.3 18:14:27 10° N 18:20:32 47° ENE 18:21:55 40° ESE
Cosmos 1733 4.1 18:17:09 10° SSW 18:20:50 49° WNW 18:24:34 10° N
Meteor 1-15 Rocket 4.2 18:15:38 10° SSW 18:21:12 82° WNW 18:26:52 10° N
Cosmos 1975 Rocket 4.2 18:17:11 10° NNW 18:21:25 44° W 18:25:39 10° SSW
BREEZE-M DEB (TANK) 3.3 18:16:21 10° W 18:22:43 56° NNW 18:23:16 49° NNE
NOSS 3-2 (C) 4.3 18:19:02 10° S 18:31:34 - NE 18:21:45 27° SSE
Cosmos 1300 Rocket 3.7 18:21:43 10° SSW 18:26:06 75° W 18:30:29 10° N
SL-27 R/B 3.2 18:22:52 10° NNW 18:25:14 44° N 18:25:14 44° N
Okean-O 4.4 18:22:58 10° SSW 18:26:53 30° W 18:30:49 10° NNW
USA 215 3.2 18:24:15 36° SE 18:27:13 81° SW 18:33:50 10° NW
Meteor 1-22 Rocket 4.1 18:23:01 10° S 18:28:35 72° E 18:34:24 10° NNE
CENTAUR R/B 2.4 18:24:56 10° SSW 18:30:35 60° ESE 18:37:24 10° NE
Cosmos 2112 Rocket 4.2 18:26:03 10° NNW 18:31:12 52° ENE 18:31:29 52° ENE
Cosmos 1766 3.9 18:27:35 10° SSW 18:31:24 53° WNW 18:35:15 10° N
Cosmos 1900 4.3 18:30:08 10° NNW 18:35:01 62° NE 18:35:11 61° ENE
Cosmos 990 Rocket 3.8 18:30:12 10° S 18:35:17 65° ESE 18:40:27 10° NNE
Meteor 2-5 Rocket 3.7 18:30:45 10° NNW 18:36:19 78° W 18:38:59 32° S
Resurs 01 Rocket 2.4 18:43:14 40° NNE 18:43:14 40° NNE 18:46:22 10° N
Ariane Rocket 2.8 18:42:21 73° ESE 18:42:38 75° ENE 18:47:43 10° N
OBJECT-B 2.7 18:43:19 26° WSW 18:43:33 26° W 18:46:17 10° NW
Resurs 1-3 3.6 18:44:33 81° W 18:44:33 81° W 18:48:54 10° NNW
Helios 1A Rocket 3.1 18:44:59 68° NW 18:44:59 68° NW 18:48:41 10° NNW
Cosmos 2366 rocket 3.9 18:39:17 10° S 18:45:26 85° W 18:51:38 10° N
Atlas Centaur 2 4.3 18:40:06 10° WSW 18:46:27 24° S 18:47:58 23° S
Cosmos 1241 Rocket 4.4 18:41:53 10° NW 18:48:11 81° WSW 18:49:35 56° SSE
Terra 4.2 18:55:28 12° NNE 18:55:28 12° NNE 18:56:01 10° NNE
USA 238 DEB 3.4 18:48:21 10° SSW 18:54:50 77° SE 19:01:41 10° NE
USA 238 3.4 18:48:29 10° SSW 18:54:56 77° SE 19:01:47 10° NE
USA 186 4.4 18:55:20 18° W 18:55:20 18° W 18:57:31 10° NW
SJ 16-02 3.6 18:53:28 10° WSW 18:57:06 24° WNW 19:00:45 10° N
USA 305 3.7 18:53:42 10° WNW 18:56:53 49° NW 18:56:53 49° NW
Cosmos 2218 Rocket 4.2 18:51:58 10° SSW 18:58:05 69° W 19:04:19 10° N
Cosmos 2297 Rocket 3.2 18:54:42 10° NNW 18:59:03 33° NE 18:59:03 33° NE
Cosmos 1867 4.3 18:57:30 10° NNW 19:02:10 42° NNE 19:02:10 42° NNE
NOSS 3-2 (A) 3.5 18:57:39 10° SW 19:03:14 70° NW 19:09:45 10° NE
ISS -1.0 19:06:12 10° WNW 19:07:19 19° NW 19:07:19 19° NW
Landsat 7 4.5 19:14:47 51° NNW 19:14:47 51° NNW 19:18:25 10° NNW
USA 307 4.3 19:09:26 10° WNW 19:12:02 36° WNW 19:12:02 36° WNW
Cosmos 2227 Rocket 3.4 19:17:21 10° NNW 19:21:08 32° NNE 19:21:08 32° NNE
SPOT 3 Rocket 4.3 19:30:37 48° NNW 19:30:37 48° NNW 19:34:21 10° NNW
USA 281 3.6 19:24:21 10° NNE 19:29:01 49° NE 19:29:01 49° NE
Cosmos 2263 Rocket 4.5 19:31:47 10° N 19:33:41 13° NNE 19:33:41 13° NNE
SeaSat 1 4.2 19:36:15 25° WSW 19:36:19 25° WSW 19:40:22 10° NW
Gbstr 26 Del rocket 4.3 19:29:03 10° WSW 19:36:32 86° SSW 19:36:32 86° SSW
Cosmos 1821 Rocket 4.3 19:41:12 66° NW 19:41:12 66° NW 19:46:57 10° N
CENTAUR R/B 3.8 20:15:55 10° WSW 20:21:40 38° NNW 20:28:29 10° NE
Cosmos 2297 Rocket 4.3 20:38:40 10° NW 20:40:51 23° NW 20:40:51 23° NW
Cosmos 2344 4.5 21:19:35 10° NW 21:27:20 59° NNE 21:27:20 59° NNE
ATLAS 3B R/B 4.4 23:21:02 26° N 23:21:02 26° N 23:25:22 10° NNE
CZ-2D R/B 4.5 23:47:40 10° NNE 23:49:12 19° NNE 23:49:12 19° NNE
